TimeCST,TemperatureF,Dew PointF,Humidity,Sea Level PressureIn,VisibilityMPH,Wind Direction,Wind SpeedMPH,Gust SpeedMPH,PrecipitationIn,Events,Conditions,WindDirDegrees,DateUTC
12:53 AM,44.1,28.9,55,29.97,10.0,SSW,4.6,-,N/A,,Clear,200,2012-12-06 06:53:00
1:53 AM,44.1,30.0,58,29.95,10.0,SSE,8.1,-,N/A,,Clear,160,2012-12-06 07:53:00
2:53 AM,43.0,30.0,60,29.94,10.0,SSE,5.8,-,N/A,,Clear,160,2012-12-06 08:53:00
3:53 AM,44.1,30.0,58,29.92,10.0,South,8.1,-,N/A,,Clear,170,2012-12-06 09:53:00
4:53 AM,44.1,30.0,58,29.89,10.0,South,10.4,-,N/A,,Clear,170,2012-12-06 10:53:00
5:53 AM,45.0,32.0,60,29.89,10.0,South,9.2,-,N/A,,Clear,180,2012-12-06 11:53:00
6:53 AM,45.0,32.0,60,29.92,10.0,SSE,5.8,-,N/A,,Clear,160,2012-12-06 12:53:00
7:53 AM,45.0,33.1,63,29.92,10.0,South,5.8,-,N/A,,Clear,180,2012-12-06 13:53:00
8:53 AM,45.0,34.0,65,29.93,10.0,Calm,Calm,-,N/A,,Scattered Clouds,0,2012-12-06 14:53:00
9:53 AM,46.9,36.0,66,29.93,10.0,South,3.5,-,N/A,,Mostly Cloudy,180,2012-12-06 15:53:00
10:53 AM,48.9,37.0,64,29.93,10.0,South,3.5,-,N/A,,Clear,190,2012-12-06 16:53:00
11:53 AM,48.9,37.9,66,29.91,10.0,SSW,5.8,-,N/A,,Overcast,200,2012-12-06 17:53:00
12:53 PM,51.1,39.9,66,29.90,10.0,WSW,8.1,-,N/A,,Scattered Clouds,250,2012-12-06 18:53:00
1:53 PM,50.0,37.9,63,29.88,10.0,NNW,5.8,-,N/A,,Overcast,340,2012-12-06 19:53:00
2:53 PM,50.0,36.0,59,29.87,10.0,North,8.1,-,N/A,,Overcast,360,2012-12-06 20:53:00
3:53 PM,50.0,34.0,54,29.90,10.0,NNE,9.2,-,N/A,,Overcast,20,2012-12-06 21:53:00
4:53 PM,46.9,36.0,66,29.94,10.0,NNW,8.1,-,0.00,Rain,Light Rain,330,2012-12-06 22:53:00
5:53 PM,46.0,36.0,68,29.94,10.0,NNE,9.2,-,0.00,Rain,Light Rain,20,2012-12-06 23:53:00
6:53 PM,44.1,37.9,79,29.93,10.0,NNE,13.8,-,0.00,Rain,Light Rain,30,2012-12-07 00:53:00
7:53 PM,45.0,36.0,71,29.96,10.0,NNE,5.8,-,0.00,,Overcast,20,2012-12-07 01:53:00
8:53 PM,45.0,37.0,74,29.98,10.0,Calm,Calm,-,N/A,,Overcast,0,2012-12-07 02:53:00
9:53 PM,43.0,37.0,80,29.97,10.0,North,5.8,-,N/A,,Overcast,360,2012-12-07 03:53:00
10:53 PM,43.0,37.0,80,29.96,10.0,North,8.1,-,N/A,,Overcast,350,2012-12-07 04:53:00
11:53 PM,43.0,37.0,80,29.96,10.0,NNE,8.1,-,N/A,,Overcast,20,2012-12-07 05:53:00